Orbital Elements at Epoch 2459000.5 (2020-May-31.0) TDB
Reference: JPL 28 (heliocentric ecliptic J2000)
Element | Value | Uncertainty (1-sigma) | Units |
e | .06448919291288341 | 2.6622e-08 | |
a | 2.254520517654402 | 6.3599e-09 | au |
q | 2.109128309065333 | 6.1078e-08 | au |
i | 4.230799499859726 | 3.4849e-06 | deg |
node | 204.4024730242403 | 3.9222e-05 | deg |
peri | 272.5425961436904 | 4.8358e-05 | deg |
M | 211.7084600980505 | 2.9066e-05 | deg |
tp | 2459509.823352662793 (2021-Oct-22.32335266) | 0.00010042 | TDB |
period | 1236.458985319331 3.39 | 5.232e-06 1.432e-08 | d yr |
n | .2911540166510461 | 1.232e-09 | deg/d |
Q | 2.39991272624347 | 6.77e-09 | au |
|
| | Orbit Determination Parameters
Additional Information
|